Palmer, AK

2:10 PM AKDT on August 27, 2016 (GMT -0800)
Palmer Municipal

Weather History for PAAQ - July, 2013

Change the Weather History Date:

Monday, July 22, 2013

  Actual Average Record
Temperature  
Mean Temperature 67 °F -  
Max Temperature 80 °F 65 °F 80 °F (2013)
Min Temperature 54 °F 48 °F 42 °F (1970)
Cooling Degree Days 2    
Growing Degree Days 17 (Base 50)    
Moisture  
Dew Point 48 °F    
Average Humidity 52    
Maximum Humidity 75    
Minimum Humidity 36    
Precipitation  
Precipitation 0.00 in - - ()
Sea Level Pressure  
Sea Level Pressure 30.03 in    
Wind  
Wind Speed 10 mph (SSE)    
Max Wind Speed 25 mph    
Max Gust Speed 31 mph    
Visibility 10 miles    
Events      
Averages and records for this station are not official NWS values.
T = Trace of Precipitation, MM = Missing Value Source: NWS Daily Summary

Daily Weather History Graph

Daily Weather History Graph

Search for Another Location

Airport or City:

Trip Planner

Search our weather history database for the weather conditions in past years. The results will help you decide how hot, cold, wet, or windy it might be!

Date:

Astronomy

Jul. 22, 2013 Rise Set
Actual Time 5:01 AM AKDT 11:02 PM AKDT
Civil Twilight 3:38 AM AKDT 12:23 AM AKDT
Nautical Twilight Sun does not set Sun does not set
Astronomical Twilight Sun does not set Sun does not set
Moon 10:14 PM AKDT (7/22) 5:37 AM AKDT (7/22)
Length of Visible Light 20h 44m
Length of Day
18h 01m
Full, 100% of the Moon is Illuminated
Jul 22
Full
Jul 29
Last Quarter
Aug 6
New
Aug 14
First Quarter
Aug 20
Full

Hourly Weather History & Observations

Time (AKDT) Temp. Dew Point Humidity Pressure Visibility Wind Dir Wind Speed Gust Speed Precip Events Conditions
12:53 AM 64.0 °F 45.0 °F 50% 29.98 in 10.0 mi North 17.3 mph - N/A   Clear
1:53 AM 64.9 °F 45.0 °F 48% 29.99 in 10.0 mi North 15.0 mph - N/A   Partly Cloudy
2:53 AM 64.0 °F 45.0 °F 50% 29.99 in 10.0 mi NNE 25.3 mph 31.1 mph N/A   Partly Cloudy
3:53 AM 64.0 °F 45.0 °F 50% 29.99 in 10.0 mi North 17.3 mph 24.2 mph N/A   Clear
4:53 AM 55.0 °F 43.0 °F 64% 30.00 in 10.0 mi East 4.6 mph - N/A   Clear
5:53 AM 54.0 °F 43.0 °F 66% 30.02 in 10.0 mi Calm Calm - N/A   Clear
6:53 AM 55.0 °F 44.1 °F 67% 30.02 in 10.0 mi SE 4.6 mph - N/A   Clear
7:53 AM 54.0 °F 46.0 °F 75% 30.04 in 10.0 mi Variable 4.6 mph - N/A   Clear
8:53 AM 60.1 °F 48.0 °F 64% 30.04 in 10.0 mi Calm Calm - N/A   Clear
9:53 AM 62.1 °F 48.9 °F 62% 30.05 in 10.0 mi SSE 5.8 mph - N/A   Clear
10:53 AM 64.0 °F 48.9 °F 58% 30.04 in 10.0 mi SSE 6.9 mph - N/A   Clear
11:53 AM 68.0 °F 50.0 °F 52% 30.04 in 10.0 mi Variable 6.9 mph - N/A   Clear
12:53 PM 72.0 °F 48.0 °F 43% 30.03 in 10.0 mi SE 9.2 mph - N/A   Clear
1:53 PM 75.0 °F 51.1 °F 43% 30.03 in 10.0 mi SSE 8.1 mph - N/A   Clear
2:53 PM 75.9 °F 51.1 °F 42% 30.03 in 10.0 mi SSE 4.6 mph - N/A   Clear
3:53 PM 79.0 °F 52.0 °F 39% 30.03 in 10.0 mi SSW 6.9 mph - N/A   Clear
4:53 PM 80.1 °F 51.1 °F 36% 30.02 in 10.0 mi WSW 9.2 mph - N/A   Clear
5:53 PM 79.0 °F 51.1 °F 38% 30.02 in 10.0 mi SW 8.1 mph - N/A   Clear
6:53 PM 79.0 °F 50.0 °F 36% 30.02 in 10.0 mi Variable 6.9 mph - N/A   Clear
7:53 PM 77.0 °F 53.1 °F 43% 30.03 in 10.0 mi West 5.8 mph - N/A   Clear
8:53 PM 73.0 °F 51.1 °F 46% 30.04 in 10.0 mi SSW 3.5 mph - N/A   Clear
9:53 PM 68.0 °F 50.0 °F 52% 30.06 in 10.0 mi SE 4.6 mph - N/A   Clear
10:53 PM 66.9 °F 48.9 °F 52% 30.07 in 10.0 mi Calm Calm - N/A   Clear
11:53 PM 61.0 °F 48.9 °F 64% 30.09 in 10.0 mi ENE 3.5 mph - N/A   Clear